Weather History for KSPG - March, 2013

Change the Weather History Date:

Friday, March 1, 2013

  Actual Average Record
Temperature  
Mean Temperature 60 °F -  
Max Temperature 62 °F 72 °F 86 °F (1997)
Min Temperature 57 °F 58 °F 42 °F (1968)
Degree Days  
Heating Degree Days 6    
Growing Degree Days 10 (Base 50)    
Moisture  
Dew Point 43 °F    
Average Humidity 57    
Maximum Humidity 67    
Minimum Humidity 47    
Precipitation  
Precipitation 0.00 in - - ()
Sea Level Pressure  
Sea Level Pressure 29.99 in    
Wind  
Wind Speed 8 mph (North)    
Max Wind Speed 14 mph    
Max Gust Speed 23 mph    
Visibility 10 miles    
Events      
Averages and records for this station are not official NWS values.
T = Trace of Precipitation, MM = Missing Value Source: NWS Daily Summary

Daily Weather History Graph

Daily Weather History Graph

Search for Another Location

Airport or City:

Trip Planner

Search our weather history database for the weather conditions in past years. The results will help you decide how hot, cold, wet, or windy it might be!

Date:

Astronomy

Mar. 01, 2013 Rise Set
Actual Time 6:54 AM EST 6:31 PM EST
Civil Twilight 6:31 AM EST 6:54 PM EST
Nautical Twilight 6:04 AM EST 7:21 PM EST
Astronomical Twilight 5:36 AM EST 7:49 PM EST
Moon 10:34 PM EST (3/1) 9:06 AM EST (3/1)
Length of Visible Light 12h 23m
Length of Day
11h 36m
Waning Gibbous, 83% of the Moon is Illuminated
Mar 1
Waning Gibbous
Mar 4
Last Quarter
Mar 11
New
Mar 19
First Quarter
Mar 27
Full

Hourly Weather History & Observations

Time (EST) Temp. Dew Point Humidity Pressure Visibility Wind Dir Wind Speed Gust Speed Precip Events Conditions
12:53 AM 60.1 °F 48.0 °F 64% 29.96 in 10.0 mi NW 5.8 mph - N/A   Clear
1:53 AM 60.1 °F 48.0 °F 64% 29.95 in 10.0 mi North 8.1 mph - N/A   Partly Cloudy
2:53 AM 60.1 °F 48.0 °F 64% 29.94 in 10.0 mi NNW 4.6 mph - N/A   Clear
4:53 AM 59.0 °F 48.0 °F 67% 29.93 in 10.0 mi NNW 5.8 mph - N/A   Clear
6:53 AM 57.9 °F 46.0 °F 65% 29.97 in 10.0 mi NE 12.7 mph - N/A   Clear
7:53 AM 57.0 °F 44.1 °F 62% 29.99 in 10.0 mi NE 10.4 mph - N/A   Clear
8:53 AM 57.0 °F 42.1 °F 57% 30.01 in 10.0 mi NNE 11.5 mph - N/A   Clear
9:53 AM 57.9 °F 42.1 °F 56% 30.02 in 10.0 mi NE 8.1 mph - N/A   Clear
10:53 AM 59.0 °F 43.0 °F 55% 30.02 in 10.0 mi NNE 5.8 mph - N/A   Scattered Clouds
11:53 AM 60.1 °F 44.1 °F 55% 30.01 in 10.0 mi North 6.9 mph - N/A   Scattered Clouds
1:53 PM 62.1 °F 45.0 °F 53% 29.96 in 10.0 mi NNW 10.4 mph - N/A   Partly Cloudy
2:53 PM 60.1 °F 44.1 °F 55% 29.96 in 10.0 mi North 11.5 mph 19.6 mph N/A   Partly Cloudy
3:53 PM 60.1 °F 44.1 °F 55% 29.97 in 10.0 mi North 13.8 mph 23.0 mph N/A   Partly Cloudy
4:53 PM 60.1 °F 43.0 °F 53% 29.96 in 10.0 mi NW 9.2 mph 19.6 mph N/A   Clear
6:53 PM 57.9 °F 42.1 °F 56% 30.01 in 10.0 mi NNW 9.2 mph - N/A   Scattered Clouds
7:53 PM 57.9 °F 39.9 °F 51% 30.01 in 10.0 mi NNW 9.2 mph - N/A   Overcast
8:53 PM 57.9 °F 39.0 °F 49% 30.02 in 10.0 mi NW 8.1 mph - N/A   Overcast
9:53 PM 57.9 °F 37.9 °F 47% 30.03 in 10.0 mi NNW 11.5 mph 17.3 mph N/A   Overcast
10:53 PM 57.9 °F 39.9 °F 51% 30.03 in 10.0 mi NNW 11.5 mph 18.4 mph N/A   Clear
11:53 PM 57.9 °F 39.9 °F 51% 30.02 in 10.0 mi NNW 12.7 mph 20.7 mph N/A   Clear